Shelbyville, IN

2:51 AM EDT on May 29, 2017 (GMT -0400)
Shelbyville Municipal

Weather History for KGEZ - October, 2013

Change the Weather History Date:

Friday, October 4, 2013

  Actual Average Record
Temperature  
Mean Temperature 77 °F 58 °F  
Max Temperature 85 °F 70 °F 87 °F (2007)
Min Temperature 68 °F 46 °F 38 °F (2010)
Degree Days  
Heating Degree Days 0 8  
Month to date heating degree days 0 30  
Since 1 July heating degree days 39 115  
Cooling Degree Days 12 1  
Month to date cooling degree days 27 4  
Year to date cooling degree days 1171 903  
Growing Degree Days 26 (Base 50)    
Moisture  
Dew Point 67 °F    
Average Humidity 74    
Maximum Humidity 90    
Minimum Humidity 58    
Precipitation  
Precipitation 0.10 in 0.12 in 1.10 in (2000)
Month to date precipitation 0.32 0.48  
Year to date precipitation 23.76 33.93  
Sea Level Pressure  
Sea Level Pressure 30.03 in    
Wind  
Wind Speed 6 mph (SSW)    
Max Wind Speed 14 mph    
Max Gust Speed 18 mph    
Visibility 9 miles    
Events Rain    
T = Trace of Precipitation, MM = Missing Value Source: NWS Daily Summary

Daily Weather History Graph

Daily Weather History Graph

Search for Another Location

Airport or City:

Trip Planner

Search our weather history database for the weather conditions in past years. The results will help you decide how hot, cold, wet, or windy it might be!

Date:

Astronomy

Oct. 04, 2013 Rise Set
Actual Time 7:42 AM EDT 7:20 PM EDT
Civil Twilight 7:15 AM EDT 7:47 PM EDT
Nautical Twilight 6:44 AM EDT 8:18 PM EDT
Astronomical Twilight 6:13 AM EDT 8:49 PM EDT
Moon 7:17 AM EDT (10/4) 7:02 PM EDT (10/4)
Length of Visible Light 12h 31m
Length of Day
11h 37m
Waning Crescent, 0% of the Moon is Illuminated
Oct 4
Waning Crescent
Oct 4
New
Oct 11
First Quarter
Oct 18
Full
Oct 26
Last Quarter

Hourly Weather History & Observations

Time (EDT) Temp. Heat Index Dew Point Humidity Pressure Visibility Wind Dir Wind Speed Gust Speed Precip Events Conditions
12:53 AM 71.1 °F - 64.9 °F 81% 30.00 in 10.0 mi South 8.1 mph - N/A   Clear
1:53 AM 69.1 °F - 64.9 °F 87% 30.01 in 10.0 mi South 5.8 mph - N/A   Overcast
2:53 AM 69.1 °F - 64.9 °F 87% 30.01 in 9.0 mi South 6.9 mph - N/A   Clear
3:53 AM 69.1 °F - 66.0 °F 90% 30.01 in 8.0 mi South 4.6 mph - 0.00 in Rain Light Rain
4:53 AM 69.1 °F - 66.0 °F 90% 30.01 in 5.0 mi Calm Calm - 0.01 in Rain Light Rain
5:53 AM 68.0 °F - 64.9 °F 90% 30.02 in 5.0 mi South 4.6 mph - 0.00 in   Clear
6:53 AM 68.0 °F - 64.9 °F 90% 30.04 in 6.0 mi South 5.8 mph - N/A   Clear
7:53 AM 69.1 °F - 64.9 °F 87% 30.05 in 6.0 mi South 6.9 mph - 0.05 in   Mostly Cloudy
8:53 AM 70.0 °F - 66.0 °F 87% 30.05 in 6.0 mi South 6.9 mph - N/A   Scattered Clouds
9:53 AM 73.0 °F - 66.9 °F 81% 30.06 in 10.0 mi South 8.1 mph - N/A   Partly Cloudy
10:53 AM 73.9 °F - 66.9 °F 79% 30.07 in 10.0 mi SW 9.2 mph - N/A   Mostly Cloudy
11:37 AM 71.6 °F - 68.0 °F 88% 30.09 in 5.0 mi SW 8.1 mph - 0.01 in Rain Light Rain
11:53 AM 72.0 °F - 68.0 °F 87% 30.06 in 3.0 mi SSW 4.6 mph - 0.04 in Rain Light Rain
12:53 PM 72.0 °F - 68.0 °F 87% 30.05 in 8.0 mi South 5.8 mph - 0.00 in   Mostly Cloudy
1:37 PM 75.2 °F - 68.0 °F 78% 30.07 in 10.0 mi West 3.5 mph - N/A   Mostly Cloudy
1:53 PM 77.0 °F - 69.1 °F 76% 30.05 in 10.0 mi SSW 6.9 mph - N/A   Mostly Cloudy
2:03 PM 78.8 °F - 69.8 °F 74% 30.06 in 10.0 mi SSW 6.9 mph - N/A   Scattered Clouds
2:53 PM 81.0 °F 84.1 °F 69.1 °F 67% 30.02 in 10.0 mi SSW 5.8 mph - N/A   Clear
3:53 PM 82.9 °F 85.8 °F 68.0 °F 60% 30.00 in 10.0 mi SSW 9.2 mph 18.4 mph N/A   Partly Cloudy
4:53 PM 84.0 °F 87.0 °F 68.0 °F 58% 30.00 in 10.0 mi SSW 11.5 mph 18.4 mph N/A   Partly Cloudy
5:53 PM 82.9 °F 85.4 °F 66.9 °F 58% 30.00 in 10.0 mi SSW 10.4 mph - N/A   Clear
6:53 PM 80.1 °F 82.3 °F 66.9 °F 64% 30.00 in 10.0 mi South 4.6 mph - N/A   Partly Cloudy
7:53 PM 77.0 °F - 68.0 °F 74% 30.01 in 10.0 mi South 5.8 mph - N/A   Clear
8:53 PM 77.0 °F - 68.0 °F 74% 30.02 in 10.0 mi South 6.9 mph - N/A   Scattered Clouds
9:53 PM 75.0 °F - 68.0 °F 79% 30.02 in 10.0 mi South 6.9 mph - N/A   Clear
10:53 PM 73.0 °F - 66.9 °F 81% 30.03 in 10.0 mi South 5.8 mph - N/A   Partly Cloudy
11:53 PM 73.9 °F - 66.9 °F 79% 30.03 in 10.0 mi South 5.8 mph - N/A   Overcast